Regional Weather Roundup
Issued by NWS Grand Forks, ND

Home | Current Version | Previous Version | Graphics & Text | Print | Product List | Glossary On
Versions: 1 2 3 4 5 6 7 8 9 10 11 12 13 14 15 16 17 18 19 20 21 22 23 24 25 26 27 28 29 30 31 32 33 34 35 36 37 38 39 40 41 42 43 44 45 46 47 48 49 50
000
ASUS43 KFGF 201610
RWRFGF
PRAIRIE TO PINES  WEATHER ROUNDUP
NATIONAL WEATHER SERVICE EASTERN NORTH DAKOTA/GRAND FORKS ND
1100 AM CDT WED SEP 20 2017

 **SATELLITE DATA USED TO AUGMENT SKY COVER AT AUTOMATED STATIONS**
 *****  WEATHER ACROSS EASTERN NORTH DAKOTA  *****

CITY           SKY/WX    TMP DP  RH WIND       PRES   REMARKS
GRAND FORKS    FAIR      63  49  60 W13       29.68R
GRAND FRKS AFB FAIR      63  46  54 W12       29.68R
DEVILS LAKE    FAIR      58  45  62 SW13      29.67R
FARGO          FAIR      62  49  62 W8        29.74R
WAHPETON ARPT  FAIR      59  46  63 W13       29.77S
$$

 ***** WEATHER ACROSS CENTRAL AND WESTERN NORTH DAKOTA  *****

CITY           SKY/WX    TMP DP  RH WIND       PRES   REMARKS
BISMARCK       FAIR      59  44  57 SW13      29.72F
MINOT          FAIR      58  43  57 SW16      29.61S
JAMESTOWN      FAIR      59  44  57 SW10      29.72S
MINOT AFB      FAIR      58  43  59 SW15      29.59S
GARRISON         N/A     56  43  61 SW20G29   29.65F
WILLISTON      FAIR      54  40  59 SW15      29.61S
DICKINSON      FAIR      57  40  52 SW21      29.70R
HETTINGER      FAIR      56  42  59 SW14      29.77R
$$

 *****  OTHER AIRPORT OBSERVATIONS IN OUR AREA  *****

CITY           SKY/WX    TMP DP  RH WIND       PRES   REMARKS
WALHALLA       FAIR     N/A N/A N/A SW15      29.62S
GRAFTON AIRPOR FAIR      63  46  55 W22       29.67R
VALLEY CITY AR FAIR      61  46  59 SW10G16   29.74S
CANDO          FAIR      59  46  63 SW10G17   29.66S
CAVALIER APRT  FAIR      61  46  59 SW14G21   29.63R
GWINNER        SUNNY     61  46  59 W9        29.76S
SHEYENNE NWR     N/A     62  48  60 W9        29.95S
ROLLA          FAIR      54  46  76 SW12      29.62S
 ***** THE ABOVE OBSERVATIONS ARE NON NWS ARE NOT QUALITY
       CONTROLLED AND MAY MIS-REPORT RAIN FOR SNOW...
$$

  *****  WEATHER ACROSS NORTHERN MINNESOTA  *****

CITY           SKY/WX    TMP DP  RH WIND       PRES   REMARKS
FLAG ISLAND    FAIR      57  52  82 W13       29.60R
WARROAD        FAIR      59  52  77 W18G24    29.64R
ROSEAU         FAIR      59  50  72 SW13G21   29.65R
HALLOCK        CLOUDY    61  50  67 W14       29.64R
THF RVR FALLS  FAIR      59  49  69 SW14      29.70R
BAUDETTE       FAIR      61  53  75 W10       29.64R
WASKISH        PTSUNNY   57  55  94 SW16      29.68R
CROOKSTON      FAIR      61  48  63 W13       29.71R
STEPHEN NDAWN    N/A     61  48  63 SW12        N/A
GREENBUSH NDAW   N/A     59  48  67 W13         N/A
$$
  *****  WEATHER ACROSS CENTRAL AND WEST MINNESOTA  *****

CITY           SKY/WX    TMP DP  RH WIND       PRES   REMARKS
FOSSTON        FAIR      57  50  77 W10       29.72R
BEMIDJI        CLOUDY    57  50  77 W9        29.72R
PARK RAPIDS    FAIR      61  50  67 W13       29.74R
ELBOW LAKE     FAIR      60  49  67 NW9       29.78R
WADENA         FAIR      61  48  63 W10G16    29.75R
DETROIT LAKES  FAIR      59  46  63 W12       29.76R
MOORHEAD       FAIR      61  46  59 SW6       29.75R
FERGUS FALLS   FAIR      61  48  63 W10       29.77S
MORRIS MN      FAIR      63  48  59 W12       29.79R
STAPLES          N/A    N/A N/A N/A W12       29.76R
$$
  *****  WEATHER ELSEWHERE ACROSS MINNESOTA  *****

CITY           SKY/WX    TMP DP  RH WIND       PRES   REMARKS
DULUTH         CLOUDY    65  65 100 S13       29.67R
INTRNTL FALLS  CLOUDY    60  57  89 W9        29.64R
ELY            CLOUDY    63  63 100 S13G18    29.64R
CLOQUET        LGT RAIN  64  61  88 W18G25    29.69R
WHEATON        FAIR      63  43  48 W9        29.79S
BRAINERD       FAIR      62  54  74 W10       29.74R
HIBBING        CLOUDY    61  60  97 VRB7      29.68R
ALEXANDRIA     FAIR      61  49  64 W14       29.79R
SAINT CLOUD    FAIR      66  57  72 W14       29.75R
MINNEAPOLIS    FAIR      71  60  68 W12       29.74R
$$

  *****  WEATHER ACROSS SOUTH DAKOTA  *****

CITY           SKY/WX    TMP DP  RH WIND       PRES   REMARKS
SIOUX FALLS    FAIR      63  50  62 NW15      29.84R
BROOKINGS      FAIR      60  47  61 NW12      29.83R
WATERTOWN      FAIR      60  44  55 W13       29.81R
HURON          FAIR      63  44  50 W10       29.84R
SISSETON         N/A     64  46  52 W13       29.77R
ABERDEEN       FAIR      60  45  57 SW8       29.80R
MITCHELL       FAIR      63  47  55 W15       29.86R
PIERRE         FAIR      63  39  41 S10       29.81F
MOBRIDGE       FAIR      60  46  59 S9        29.77S
RAPID CITY     SUNNY     57  34  41 SE9       29.83S
$$

  *****  SOME WEATHER IN NEARBY STATES *****

CITY           SKY/WX    TMP DP  RH WIND       PRES   REMARKS
GLASGOW MT     FAIR      56  35  45 SW14      29.56S
GREAT FALLS MT FAIR      51  27  39 SW20G30   29.55F
CHEYENNE WY    FAIR      54  32  43 SW17G25   30.01R
SCOTTSBLUFF NE FAIR      61  29  29 NW16      29.94R
OMAHA NE       FAIR      73  55  53 N20       29.80R
DES MOINES IA  PTSUNNY   82  70  66 SW12      29.75R
DAVENPORT IA   FAIR      83  69  62 S12       29.85R
CHICAGO IL     FAIR      83  67  58 S10       29.89F
EAU CLAIRE WI  PTSUNNY   75  67  76 S12       29.72S
LA CROSSE WI   FAIR      81  68  64 S14G24    29.73S
$$

  *****  SOME NATIONAL WEATHER *****

CITY           SKY/WX    TMP DP  RH WIND       PRES   REMARKS
LA GUARDIA NY  PTSUNNY   76  66  71 N16       29.86F
RALEIGH NC     FAIR      86  70  58 SW8       30.02F HX  90
ATLANTA GA     FAIR      84  65  52 NW7       30.08S
NEW ORLEANS LA PTSUNNY   87  74  64 S6        30.03S HX  95
OKLAHOMA CITY  FAIR      84  70  62 S17G25    29.84R
ALBUQUERQUE NM FAIR      69  36  29 SW8       30.12R
SALT LAKE CITY FAIR      58  39  49 SE14      29.92S
LOS ANGELES CA PTSUNNY   70  61  73 E3        29.90R
BOISE ID       CLOUDY    56  34  43 SE15      29.71F
SEATTLE WA     CLOUDY    50  49  96 W5        29.64R
$$

*** WEATHER ACROSS MANITOBA...SASKATCHEWAN AND ONTARIO ***
                ***ONTARIO***

CITY           SKY/WX    TMP DP  RH WIND       PRES   REMARKS
GERALDTON      CLOUDY    59  57  94 SE14G21   29.82F
THUNDER BAY    CLOUDY    63  59  88 E7        29.75R
SIOUX LOOKOUT  LGT RAIN  61  59  94 S9        29.57S
TORONTO        MOSUNNY   75  64  69 VRB3      30.04F
BIG TROUT LK   CLOUDY    57  48  72 SE13G24   29.64F
PICKLE LAKE    CLOUDY    59  54  82 SE15      29.61S
DRYDEN         HVY RAIN  61  61 100 SW15      29.56R FOG
KENORA         PTSUNNY   57  52  82 SW13G21   29.59R
$$
                *** MANITOBA***

CITY           SKY/WX    TMP DP  RH WIND       PRES   REMARKS
BRANDON        MOSUNNY   57  46  67 SW14G20   29.54R
DAUPHIN        SUNNY     54  43  66 SW17G25   29.45R
ISLAND LAKE    LGT RAIN  57  55  94 SE24G36   29.33F
PILOT MOUND      N/A     57  43  58 SW16        N/A
THE PAS        CLOUDY    50  48  93 SW12G20   29.14S
THOMPSON       SHOWER    46  45  93 NE15G29   29.34F FOG
WINNIPEG       MOSUNNY   61  46  59 SW14G23   29.56R
LYNN LAKE      RAIN      45  43  93 E23G37    29.42F FOG
CHURCHILL      CLOUDY    41  37  87 E21G31    29.94F
GILLAM         LGT RAIN  46  41  81 E16G33    29.56F
$$
                ***SASKATCHEWAN***

CITY           SKY/WX    TMP DP  RH WIND       PRES   REMARKS
ESTEVAN        PTSUNNY   54  39  58 SW15G21   29.55S
KINDERSLEY     SUNNY     41  34  75 SE3       29.37F
LLOYDMINSTER   NOT AVBL
PRINCE ALBERT  PTSUNNY   46  39  76 W12       29.34S
REGINA         MOSUNNY   50  37  62 SW18      29.45F
YORKTON        SUNNY     50  41  71 SW8       29.44R
N. BATTLEFORD  SUNNY     43  36  75 W7        29.38S
LA RONGE       NOT AVBL
SASKATOON      MOSUNNY   45  37  76 SW6       29.39S
SWIFT CURRENT  SUNNY     52  30  43 W22G28    29.41S
$$
NOTE: THESE ARE AUTOMATED STATIONS WITH LIMITED QUALITY CONTROL
      "FAIR" INDICATES FEW OR NO CLOUDS BELOW 12,000 FEET WITH NO
      SIGNIFICANT WEATHER AND/OR OBSTRUCTIONS TO VISIBILITY.
      SKY/WX - SKY CONDITION AND SIGNIFICANT WEATHER.
      TMP - AIR TEMPERATURE.    DP   - DEWPOINT TEMPERATURE.
      RH  - RELATIVE HUMIDITY.  PRES - PRESSURE.
      HX  - HEAT INDEX.         WCI  - WIND CHILL INDEX.
$




USA.gov is the U.S. government's official web portal to all federal, state and local government web resources and services.